GOES 5 (12472 NORAD) Tracking and Keplerian Element Data

This shows tracking and keplerian element data for the satellite.

Feedback or suggestion? Click here.




ElementValue
Catalog12472
NameGOES 5
Epoch Orbit11784
Epoch Day34.30791933
Epoch Year2025
RAAN318.9999
Inclination10.2541
Eccentricity0.0003549
Argument of Perigee312.9461
Mean Anonmoly239.6143
Mean Motion1.00336042
Decay Rate-1.73E-06
L11 12472U 81049A 25034.30791933 -.00000173 00000+0 00000+0 0 9997
L22 12472 10.2541 318.9999 0003549 312.9461 239.6143 1.00336042117844



Live tracking and technical data element details for GOES 5 (NORAD 12472). GOES 5 can be tracked NOW for your location showing map with azimuth and elevation plus other details from your city location.







IsCatalogInMostPopularTable: catalog: 12472, numindb: 303
Update: records affected: 1



GetName: 12472 GOES 5

Hit Count: updated at: Thu, 15 May 2025 20:04:00 GMT